www.pogodaiklimat.ru
Время
(UTC), дата
15 29.07
18 29.07
21 29.07
00 30.07
03 30.07
06 30.07
09 30.07
12 30.07
15 30.07
18 30.07
21 30.07
00 31.07
03 31.07
06 31.07
09 31.07
12 31.07
15 31.07
18 31.07
21 31.07
00 1.08
03 1.08
06 1.08
09 1.08
12 1.08
15 1.08
18 1.08
21 1.08
00 2.08
03 2.08
06 2.08
09 2.08
12 2.08
15 2.08
18 2.08
21 2.08
00 3.08
03 3.08
06 3.08
09 3.08
12 3.08
15 3.08
18 3.08
21 3.08
00 4.08
03 4.08
06 4.08
09 4.08
12 4.08
15 4.08
18 4.08
21 4.08
00 5.08
03 5.08
06 5.08
09 5.08
12 5.08
Ветер
(напр.,м/с)
Видим. Явления Облачность Т
(С)
Тd
(С)
f
(%)
Тe
(С)
Тes
(С)
Комфортность P
(гПа)
Po
(гПа)
Тmin
(С)
Tmax
(С)
R
(мм)
R24
(мм)
S
(см)
В 5 20 км ясно +28.2 +10.0 32 +28 +30 жарко 1014.7 1006.8
ЮВ 1 20 км ясно +26.8 +12.7 42 +28 +28 жарко 1015.6 1007.6 +28.6
С 2 20 км ясно +22.2 +15.1 64 +26 +26 душно 1015.8 1007.7
С 3 20 км ясно +20.2 +12.8 62 +22 +22 комфорт 1016.0 1007.9
СВ 4 10 км ясно +23.2 +8.5 39 +24 +25 комфорт 1016.1 1008.0
В 4 10 км ясно +25.8 +13.5 47 +28 +34 жарко 1017.0 1009.0 +19.5
В 2 10 км 1/1 600 м
[Cu med, cong]
+27.0 +19.2 62 +32 +47 очень
душно
1016.8 1008.9
Ю 3 20 км 1/1 600 м
[Cu med, cong]
+28.4 +16.5 48 +32 +41 душно 1015.8 1007.9
Ю 3 20 км 1/0
[Cs]
+29.8 +17.5 48 +34 +36 очень
душно
1014.3 1006.4
З 4 20 км 6/0
[Cs]
+27.2 +11.7 38 +28 +28 жарко 1014.4 1006.5 +31.0
З 4 20 км 4/0
[Cs]
+24.2 +11.6 45 +26 +26 жарко 1014.0 1006.0
З 4 20 км ясно +22.6 +14.0 58 +26 +26 жарко 1012.8 1004.8
Ю 1 10 км 4/0
[Cs]
+21.6 +14.8 65 +25 +25 комфорт 1012.6 1004.5
В 2 10 км 8/0
[Cs]
+25.9 +17.6 60 +30 +37 душно 1012.0 1004.1 +21.4
ЮВ 3 20 км 9/6 800 м
[Cb cap Cc]
+28.2 +20.1 61 +34 +39 очень
душно
1011.1 1003.2
ЮВ 5 20 км {гроза, ливн. дождь} 8/0
[Ac trans Cc]
+27.9 +18.9 58 +33 +38 очень
душно
1009.4 1001.5
Ю 5 20 км 8/3 600 м
[Cb cap Ac trans Cs]
+26.2 +24.0 88 +36 +37 очень
душно
1007.5 999.6
СВ 2 10 км в посл. час гроза {ливн. дождь} 10/8 630 м
[Cb cap As op]
+20.7 +20.1 96 +26 +26 душно 1007.7 999.7 +28.9 10
ЮЗ 3 20 км 10/8 570 м
[Cb cap As op]
+22.7 +21.9 95 +30 +30 очень
душно
1006.6 998.6
СЗ 5 10 км в посл. час ливневой дождь 10/10 540 м
[Cb cap]
+20.1 +19.3 95 +23 +23 комфорт 1004.8 996.8
С 5 10 км слаб. ливневой дождь 10/10 570 м
[Cb cap]
+19.1 +18.3 95 +21 +21 комфорт 1004.8 996.7
СЗ 3 10 км в посл. час ливневой дождь 6/3 600 м
[Cb cap Ac trans Ci fib]
+18.3 +16.6 90 +19 +23 прохладно 1005.4 997.3 +17.5 3
СЗ 5 20 км 6/6 960 м
[Cu hum]
+23.6 +9.9 42 +25 +28 комфорт 1005.5 997.5
СЗ 6 20 км 8/8 960 м
[Cu hum]
+24.6 +7.3 33 +25 +26 комфорт 1005.8 997.8
СЗ 4 20 км 4/4 1000 м
[Cu hum]
+25.0 +6.3 30 +25 +26 комфорт 1005.7 997.8
СЗ 2 20 км ясно +20.7 +7.8 43 +23 +23 комфорт 1006.8 998.7 +25.7
СЗ 3 20 км ясно +17.5 +10.4 63 +18 +18 прохладно 1007.3 999.1
СЗ 3 20 км 9/0
[Ac trans]
+15.5 +12.4 82 +15 +15 прохладно 1007.2 999.0
СЗ 3 10 км 9/8 720 м
[Cb cap Ac und]
+16.2 +12.8 80 +16 +16 холодно 1007.7 999.5
С 2 20 км 8/3 600 м
[Cb cap Ac trans]
+19.2 +12.2 64 +21 +24 комфорт 1008.4 1000.3 +15.1
ЮВ 2 20 км 8/8 600 м
[Cu hum]
+23.2 +10.8 46 +25 +29 комфорт 1009.2 1001.2
Ю 3 20 км {гроза, ливн. дождь} 8/3 600 м
[Cb cap Ac trans]
+22.8 +14.7 60 +26 +30 жарко 1009.8 1001.8
З 4 20 км 6/3 600 м
[Cb cap Ac trans]
+23.8 +12.2 48 +26 +26 жарко 1010.1 1002.1
СЗ 2 20 км 4/3 1000 м
[Sc diur, vesp Ac As]
+20.8 +15.2 70 +24 +24 комфорт 1011.6 1003.5 +25.0 0.3
СЗ 4 20 км ясно +16.0 +10.5 70 +15 +15 холодно 1013.0 1004.8
СЗ 4 20 км ясно +15.0 +13.0 88 +14 +14 холодно 1013.8 1005.5
СЗ 4 20 км ясно +14.2 +13.8 97 +13 +13 очень
холодно
1014.8 1006.5
СЗ 3 10 км ясно +20.4 +14.0 67 +23 +30 комфорт 1015.4 1007.3 +14.0
ЮВ 4 20 км 4/4 600 м
[Cu hum]
+24.4 +13.8 52 +27 +33 жарко 1015.6 1007.6
Ю 5 20 км 4/4 600 м
[Cu med, cong]
+25.2 +14.4 51 +28 +31 жарко 1015.3 1007.3
ЮЗ 3 20 км 3/3 600 м
[Cu hum]
+25.0 +15.4 55 +28 +29 жарко 1014.7 1006.7
З 4 20 км ясно +21.2 +15.8 71 +24 +24 комфорт 1015.3 1007.2 +25.6
З 4 20 км ясно +19.6 +15.2 76 +22 +22 комфорт 1015.5 1007.4
С 3 20 км ясно +17.2 +16.5 96 +17 +17 по сезону 1015.6 1007.4
С 3 10 км ясно +18.6 +12.9 69 +19 +20 по сезону 1016.1 1007.9
В 4 50 км ясно +23.4 +13.2 53 +27 +32 душно 1016.5 1008.4 +15.7
ЮВ 5 50 км 1/1 600 м
[Cu hum]
+26.3 +16.6 55 +30 +38 душно 1015.8 1007.8
В 3 50 км 1/1 600 м
[Cu hum]
+27.1 +14.0 45 +29 +38 жарко 1015.2 1007.3
ЮВ 2 50 км ясно +26.7 +13.2 43 +28 +30 жарко 1014.0 1006.1
В 3 20 км ясно +25.0 +13.4 49 +27 +27 жарко 1014.2 1006.2 +27.7
С 2 20 км ясно +21.3 +12.7 58 +24 +24 комфорт 1014.5 1006.4
СВ 4 20 км ясно +21.2 +8.9 45 +22 +22 комфорт 1014.3 1006.2
С 4 20 км ясно +20.1 +8.6 47 +21 +21 комфорт 1014.8 1006.7
В 4 20 км ясно +24.4 +10.5 42 +26 +31 жарко 1015.0 1007.0 +19.0
В 5 50 км ясно +28.2 +9.8 32 +28 +37 жарко 1014.2 1006.3
Ю 4 50 км ясно +26.9 +15.2 49 +30 +38 душно 1013.6 1005.7
Местоположение метеостанции Мариуполь (Донецкая область, Украина): широта 47.03 долгота 37.50 высота над уровнем моря 70 м.
В архиве по умолчанию представлена погода в Мариуполе за последнюю неделю. Архивные данные за месяц целиком и за предыдущие месяцы, начиная с января 2011 года, Вы можете получить, выбрав интересующий диапазон дат из раскрывающегося списка и нажав кнопку "Найти!".
*Определитесь, кто Вы:
Внимание! Время в таблицах - всемирное. Для получения местного времени необходимо прибавить поправку, которая равна 2 ч.
Смотрите также архив погоды в соседних городах и на ближайших метеорологических станциях:
Партнеры нашего сайта:
Lord of the ocean slot review
Lord Of The Ocean
imperator.casino

     
Пояснения к столбцам:
  • Ветер - указаны скорость ветра в м/с - средняя за 10 мин, порывы в срок и между сроками (в фигурных скобках) и направление, откуда дует ветер: С - северный,
  • СВ - северо-восточный, В - восточный, ЮВ - юго-восточный, Ю - южный, ЮЗ - юго-западный, З - западный, СЗ - северо-западный.
  • Видимость - горизонтальная дальность видимости в метрах или километрах. При видимости от 1 до 10 км при отсутствии осадков обычно наблюдается дымка, при ухудшении видимости до 1 км и менее - туман. В сухую погоду видимость может ухудшаться дымом, пылью или мглою.
  • Явления - указаны атмосферные явления, наблюдавшиеся в срок или в последний час перед сроком; фигурными скобками обозначены явления, наблюдавшиеся между сроками (за 1-3 часа до срока); квадратными скобками обозначены град или гололедные отложения с указанием их диаметра в мм.
  • Облачность - указаны через наклонную черту общая и нижняя облачность в баллах и высота нижней границы облаков в метрах; квадратными скобками обозначены формы облаков: Ci - перистые, Cs - перисто-слоистые, Cc - перисто-кучевые, Ac - высококучевые, As - высокослоистые, Sc - слоисто-кучевые, Ns - слоисто-дождевые, Cu - кучевые, Cb - кучево-дождевые. Подробнее классификацию облаков см. в Атласе облаков (PDF).
  • T - Температура воздуха - температура, измеренная на высоте 2 м над землей.
  • Td - Температура точки росы - температура, при понижении до которой содержащийся в воздухе водяной пар достигнет насыщения.
  • f - Относительная влажность воздуха - влажноcть воздуха, измеренная на высоте 2 м над землей.
  • Te - Эффективная температура - температура, которую ощущает одетый по сезону человек в тени. Характеристика душности погоды. При расчете учитывается влияние влажности воздуха и скорости ветра на теплоощущения человека.
  • Tes - Эффективная температура на солнце - температура, которую ощущает человек, с поправкой на солнечный нагрев. Характеристика знойности погоды. Зависит от высоты солнца над горизонтом, облачности и скорости ветра. Ночью, в пасмурную погоду, а также при ветре 12 м/с и более поправка равна нулю.
  • P - Атмосферное давление - приведенное к уровню моря атмосферное давление.
  • Po - Атмосферное давление - измеренное на уровне метеостанции атмосферное давление.
  • Tmin - Минимальная температура - минимум температуры воздуха на высоте 2 м над землей.
  • Tmax - Максимальная температура - максимум температуры воздуха на высоте 2 м над землей.
  • R - Количество осадков - Количество выпавших осадков за период времени, мм. При наведении курсора мыши на число - период времени, за который выпало указанное количество осадков.
  • R24 - Количество осадков - Количество выпавших осадков за 24 часа, мм.
  • S - Снежный покров - Высота снежного покрова, см. При наведении курсора мыши на число - состояние снежного покрова и степень покрытия местности в баллах.